Location: Pedholt
(56.0260°N, 10.2097°E)
Time: 05:10:44
(UTC+00:00)

Cosmos 1378 - Pass Details

Date: 14 July 2020
Orbit: 492 x 501 km, 82.5° (Epoch: 14 August)

Event Time Altitude Azimuth Distance (km) Brightness Sun altitude
Rises 01:48:23 0° 349° (N) 2,612 7.5 -6.6°
Reaches altitude 10° 01:50:32 10° 352° (N) 1,723 6.7 -6.5°
Maximum altitude 01:54:17 65° 75° (ENE) 558 3.6 -6.2°
Drops below altitude 10° 01:58:01 10° 159° (SSE) 1,710 5.5 -5.9°
Sets 02:00:08 0° 162° (SSE) 2,589 6.4 -5.7°
